Date,TemperatureHighF,TemperatureAvgF,TemperatureLowF,DewpointHighF,DewpointAvgF,DewpointLowF,HumidityHigh,HumidityAvg,HumidityLow,PressureMaxIn,PressureMinIn,WindSpeedMaxMPH,WindSpeedAvgMPH,GustSpeedMaxMPH,PrecipitationSumIn
2014-1-1,54,36,30,28,22,18,69,56,32,0.00,40.00,4,1,9,0.00
2014-1-2,53,42,31,39,31,23,74,67,49,0.00,40.00,8,1,12,0.00
2014-1-3,42,29,21,34,5,-1,72,37,22,0.00,40.00,19,8,26,0.00
2014-1-4,43,34,18,16,6,-100,51,34,18,0.00,40.00,5,2,8,0.00
2014-1-6,61,46,35,52,31,7,74,57,28,0.00,40.00,14,6,20,0.00
2014-1-7,21,19,15,-12,-13,-16,25,22,19,0.00,40.00,6,4,10,0.00
2014-1-8,46,31,9,13,5,-3,61,35,19,0.00,40.00,3,1,6,0.00
2014-1-9,50,31,24,21,13,8,61,49,26,0.00,40.00,2,1,4,0.00
2014-1-10,42,40,38,35,30,21,75,67,47,0.00,40.00,6,2,8,0.00
2014-1-11,63,48,41,54,38,-100,76,73,73,0.00,40.00,9,2,11,0.00
2014-1-12,60,50,39,45,30,25,65,48,31,0.00,40.00,11,4,18,0.00
2014-1-13,63,44,33,36,30,25,71,60,35,0.00,40.00,4,1,8,0.00
2014-1-14,56,50,40,46,41,32,75,71,50,0.00,40.00,7,1,11,0.00
2014-1-15,63,44,37,41,33,26,76,66,35,0.00,40.00,11,3,14,0.00
2014-1-16,48,38,29,31,25,15,75,62,27,0.00,40.00,11,3,13,0.00
2014-1-17,59,41,29,31,22,17,67,49,28,0.00,40.00,6,3,11,0.00
2014-1-18,49,34,24,30,10,-100,60,40,23,0.00,40.00,12,6,18,0.00
2014-1-19,58,41,26,25,16,10,59,38,25,0.00,40.00,13,4,19,0.00
2014-1-20,69,37,29,28,22,18,63,47,18,0.00,40.00,5,2,8,0.00
2014-1-21,49,37,24,31,24,14,72,59,47,0.00,40.00,16,5,20,0.00
2014-1-22,27,21,14,14,4,-5,69,50,25,0.00,40.00,12,6,17,0.00
2014-1-23,35,24,13,6,2,-7,62,40,26,0.00,40.00,18,6,23,0.00
2014-1-24,25,16,11,-6,-10,-14,38,30,17,0.00,40.00,17,8,21,0.00
2014-1-25,42,37,23,12,1,-100,32,24,18,0.00,40.00,13,8,18,0.00
2014-1-26,57,43,23,19,9,-4,44,26,14,0.00,40.00,11,4,16,0.00
2014-1-27,66,48,33,32,22,-5,43,35,18,0.00,40.00,14,6,19,0.00
2014-1-28,33,22,13,8,0,-9,69,41,18,0.00,40.00,14,7,18,0.00
2014-1-29,27,15,7,4,0,-9,67,53,22,0.00,40.00,9,3,11,0.00
2014-1-30,41,21,-2,5,-1,-10,68,43,19,0.00,40.00,3,1,6,0.00
2014-1-31,59,30,9,17,10,-1,65,46,18,0.00,40.00,5,1,6,0.00
2014-2-1,65,42,22,26,17,-100,71,43,19,0.00,40.00,4,1,5,0.00
2014-2-2,67,53,45,43,34,26,64,50,33,0.00,40.00,4,2,6,0.00
2014-2-3,60,49,40,51,38,30,73,67,60,0.00,40.00,15,4,20,0.00
2014-2-4,51,41,33,35,30,24,75,65,44,0.00,40.00,7,2,9,0.00
2014-2-5,55,42,38,44,33,23,75,69,40,0.00,40.00,11,3,15,0.00
2014-2-6,45,40,33,23,19,16,55,43,31,0.00,40.00,10,3,16,0.00
2014-2-7,50,39,27,22,20,17,71,47,31,0.00,40.00,11,3,13,0.00
2014-2-8,51,38,32,28,23,19,68,56,36,0.00,40.00,5,1,8,0.00
2014-2-9,54,40,29,33,28,22,74,62,45,0.00,40.00,6,1,9,0.00
2014-2-10,44,39,34,30,26,21,73,62,45,0.00,40.00,6,2,10,0.00
2014-2-11,36,31,25,28,13,8,72,49,31,0.00,40.00,8,3,12,0.00
2014-2-12,28,23,20,19,10,6,74,59,40,0.00,40.00,9,5,13,0.00
2014-2-13,38,33,27,29,25,19,75,73,67,0.00,40.00,9,3,15,0.00
2014-2-14,57,40,33,29,23,19,67,51,24,0.00,40.00,9,4,12,0.00
2014-2-15,49,40,31,34,18,-100,74,45,27,0.00,40.00,15,6,22,0.00
2014-2-16,55,40,27,23,16,10,55,38,27,0.00,40.00,10,4,15,0.00
2014-2-17,49,36,27,23,18,15,67,48,25,0.00,40.00,4,1,8,0.00
2014-2-18,65,40,34,25,23,19,64,51,17,0.00,40.00,3,0,8,0.00
2014-2-19,70,50,38,49,36,24,67,58,48,0.00,40.00,2,1,5,0.00
2014-2-20,69,51,46,46,32,-100,70,54,37,0.00,40.00,2,0,8,0.00
2014-2-21,71,57,46,59,46,33,71,65,55,0.00,40.00,24,4,34,0.00
2014-2-22,61,46,38,36,29,-100,72,55,28,0.00,40.00,3,0,4,0.00
2014-2-23,70,47,35,37,30,25,68,53,25,0.00,40.00,4,0,6,0.00
2014-2-24,63,54,40,38,22,7,64,34,13,0.00,40.00,15,6,20,0.00
2014-2-25,55,40,30,26,18,11,62,44,18,0.00,40.00,11,2,16,0.00
2014-2-26,51,42,34,25,17,4,55,39,24,0.00,40.00,14,4,18,0.00
2014-2-27,59,40,24,9,5,-2,50,25,9,0.00,40.00,13,6,22,0.00
2014-2-28,45,33,21,10,5,2,46,32,19,0.00,40.00,9,3,13,0.00
2014-3-1,60,36,27,27,14,-100,64,42,25,0.00,40.00,3,1,7,0.00
2014-3-2,37,34,33,28,26,24,72,69,65,0.00,40.00,0,0,2,0.00
2014-3-3,60,31,16,47,22,4,75,68,58,0.00,40.00,11,7,19,0.00
2014-3-4,40,25,11,10,4,-2,61,42,22,0.00,40.00,7,4,12,0.00
2014-3-5,47,35,26,20,12,6,62,39,23,0.00,40.00,6,2,9,0.00
2014-3-6,46,36,30,24,18,10,71,49,34,0.00,40.00,11,6,16,0.00
2014-3-7,40,35,31,30,27,23,74,71,62,0.00,40.00,12,4,15,0.00
2014-3-8,68,39,28,40,27,-100,75,66,35,0.00,40.00,2,0,5,0.00
2014-3-9,69,48,40,38,34,28,73,58,24,0.00,40.00,7,1,11,0.00
2014-3-10,73,41,31,35,28,24,74,62,24,0.00,40.00,2,0,7,0.00
2014-3-11,75,58,46,41,36,32,59,44,26,0.00,40.00,8,1,10,0.00
2014-3-12,68,56,48,58,36,22,70,48,34,0.00,40.00,18,4,27,0.00
2014-3-13,48,38,30,22,5,-5,44,26,13,0.00,40.00,18,8,24,0.00
2014-3-14,62,35,25,19,11,5,58,39,16,0.00,40.00,5,1,10,0.00
2014-3-15,67,58,52,36,30,20,48,36,21,0.00,40.00,8,4,14,0.00
2014-3-16,58,46,39,38,30,-100,73,58,34,0.00,40.00,7,3,13,0.00
2014-3-17,38,32,30,30,23,-100,75,71,70,0.00,40.00,7,4,13,0.00
2014-3-18,41,36,30,31,27,22,73,71,67,0.00,40.00,9,4,14,0.00
2014-3-19,53,43,36,44,34,28,74,71,64,0.00,40.00,7,3,12,0.00
2014-3-20,69,50,48,41,32,-100,71,56,12,0.00,40.00,10,2,15,0.00
2014-3-21,72,44,33,35,23,-100,65,50,14,0.00,40.00,12,1,18,0.00
2014-3-22,73,63,57,42,39,32,51,41,29,0.00,40.00,5,2,8,0.00
2014-3-23,58,48,40,42,33,-100,73,59,39,0.00,40.00,10,2,13,0.00
2014-3-24,54,41,30,33,19,11,74,45,21,0.00,40.00,8,2,14,0.00
2014-3-25,53,40,35,32,25,17,71,56,31,0.00,40.00,15,4,18,0.00
2014-3-26,49,39,31,26,10,1,70,34,14,0.00,40.00,14,6,22,0.00
2014-3-27,62,40,28,22,14,6,53,36,17,0.00,40.00,2,0,5,0.00
2014-3-28,70,52,49,58,35,20,66,52,29,0.00,40.00,7,2,10,0.00
2014-3-29,70,65,64,61,56,55,74,73,70,0.00,40.00,1,0,1,0.00
2014-3-30,69,51,41,60,34,-100,73,54,36,0.00,40.00,19,9,26,0.00
2014-3-31,75,55,47,36,28,18,50,35,21,0.00,40.00,8,3,13,0.00
2014-4-1,77,53,42,44,34,-100,71,54,26,0.00,40.00,2,1,4,0.00
2014-4-2,89,60,51,47,40,37,61,50,19,0.00,40.00,6,1,10,0.00
2014-4-3,78,64,55,55,45,40,60,50,37,0.00,40.00,4,1,6,0.00
2014-4-4,64,62,60,52,51,50,70,67,64,0.00,40.00,3,1,4,0.00
2014-4-5,73,70,69,33,31,29,27,24,21,0.00,40.00,13,11,18,0.00
2014-4-6,67,50,44,37,26,-100,51,44,26,0.00,40.00,4,2,7,0.00
2014-4-7,59,51,44,49,41,31,75,68,40,0.00,40.00,8,2,12,0.00
2014-4-8,71,62,58,52,49,44,74,64,41,0.00,40.00,2,1,3,0.00
2014-4-9,67,58,54,45,43,36,70,59,39,0.00,40.00,3,2,4,0.00
2014-4-10,72,53,44,45,38,34,69,57,28,0.00,40.00,2,1,3,0.00
2014-4-11,67,62,60,44,41,39,50,46,36,0.00,40.00,3,2,6,0.00
2014-4-12,81,64,62,54,52,49,64,50,34,0.00,40.00,3,1,4,0.00
2014-4-13,73,36,73,53,-24,-100,49,49,49,0.00,40.00,1,1,3,0.00
2014-4-14,76,76,76,65,65,65,69,69,69,0.00,40.00,2,2,5,0.00
2014-4-15,55,51,49,46,41,38,72,68,63,0.00,40.00,15,11,23,0.00
2014-4-16,54,43,35,32,23,17,57,46,29,0.00,40.00,16,8,19,0.00
2014-4-17,64,44,37,40,29,24,65,56,40,0.00,40.00,6,2,9,0.00
2014-4-18,59,45,41,38,34,31,70,62,42,0.00,40.00,5,3,9,0.00
2014-4-19,65,56,51,49,45,42,73,67,55,0.00,40.00,7,2,10,0.00
2014-4-20,68,58,55,46,35,-100,63,45,38,0.00,40.00,5,3,9,0.00
2014-4-21,75,54,45,44,34,27,56,47,26,0.00,40.00,8,3,11,0.00
2014-4-24,73,65,62,45,42,38,54,44,28,0.00,40.00,2,1,3,0.00
2014-4-25,79,60,54,68,44,38,73,57,45,0.00,40.00,7,1,11,0.00
2014-4-26,-200,0,200,46,46,46,20,20,20,0.00,40.00,9,9,12,0.00
2014-4-27,62,62,62,50,50,50,64,64,64,0.00,40.00,0,0,2,0.00
2014-4-28,67,46,60,52,50,45,72,63,47,0.00,40.00,7,4,13,0.00
2014-4-29,58,58,57,50,49,49,74,74,73,0.00,40.00,6,3,9,0.00
2014-4-30,66,64,63,58,56,55,74,74,74,0.00,40.00,8,3,10,0.00
2014-5-2,72,69,64,46,45,44,51,43,37,0.00,40.00,1,0,2,0.00
2014-5-3,74,64,61,49,48,48,65,57,41,0.00,40.00,6,1,9,0.00
2014-5-31,-200,0,200,64,64,64,69,69,69,0.00,40.00,1,1,2,0.00
2014-6-1,-200,0,200,-100,-100,-100,0,0,100,0.00,40.00,2,2,3,0.00
2014-6-3,95,88,84,73,73,72,68,61,49,0.00,40.00,2,1,3,0.00
2014-6-4,106,92,80,75,71,67,70,53,35,0.00,40.00,6,2,9,0.00
2014-6-5,102,94,84,75,72,66,73,51,32,0.00,40.00,10,5,13,0.00
2014-6-6,102,89,80,70,66,60,69,49,28,0.00,40.00,3,1,6,0.00
2014-6-7,105,86,73,71,67,63,73,55,30,0.00,40.00,3,1,5,0.00
2014-6-8,104,87,76,72,65,-100,66,49,36,0.00,40.00,6,3,12,0.00
2014-6-9,102,90,81,77,71,65,66,55,45,0.00,40.00,5,2,8,0.00
2014-6-10,110,97,82,78,73,71,70,49,29,0.00,40.00,7,3,11,0.00
2014-6-11,113,87,81,77,72,70,73,55,28,0.00,40.00,7,2,13,0.00
2014-6-12,103,84,82,79,75,72,73,65,47,0.00,40.00,3,1,7,0.00
2014-6-13,105,90,79,74,72,68,72,57,34,0.00,40.00,9,3,14,0.00
2014-6-14,102,87,78,72,65,56,71,50,23,0.00,40.00,10,4,12,0.00
2014-6-15,107,85,73,73,63,-100,72,51,30,0.00,40.00,3,2,5,0.00
2014-6-16,114,96,79,76,73,69,72,50,27,0.00,40.00,7,3,12,0.00
2014-6-17,115,99,85,82,76,70,65,49,26,0.00,40.00,5,2,8,0.00
2014-6-18,117,102,84,80,74,69,66,43,23,0.00,40.00,10,4,13,0.00
2014-6-19,114,98,86,86,75,71,72,49,29,0.00,40.00,12,3,25,0.00
2014-6-20,107,90,82,78,74,71,73,59,38,0.00,40.00,5,2,9,0.00
2014-6-21,108,91,81,82,76,72,73,62,42,0.00,40.00,5,2,7,0.00
2014-6-22,99,87,83,75,70,-100,70,60,45,0.00,40.00,6,3,10,0.00
2014-6-23,104,87,76,70,64,-100,70,50,29,0.00,40.00,4,1,6,0.00
2014-6-24,107,92,78,77,72,67,70,55,37,0.00,40.00,4,2,9,0.00
2014-6-25,110,94,85,78,76,74,73,54,33,0.00,40.00,9,3,13,0.00
2014-6-26,111,91,84,77,74,69,73,57,29,0.00,40.00,7,-16,12,0.00
2014-6-27,112,92,83,80,76,74,73,60,33,0.00,40.00,6,2,10,0.00
2014-6-28,107,93,86,77,72,63,70,52,35,0.00,40.00,4,2,11,0.00
2014-6-29,101,80,73,70,61,-100,69,46,31,0.00,40.00,4,1,6,0.00
2014-6-30,109,86,78,75,72,67,70,41,32,0.00,40.00,7,2,12,0.00
2014-7-1,109,100,86,80,76,71,60,48,38,0.00,40.00,7,3,11,0.00
2014-7-2,116,93,91,81,78,75,65,48,31,0.00,40.00,11,4,16,0.00
2014-7-3,111,96,84,82,78,73,73,58,39,0.00,40.00,6,2,9,0.00
2014-7-4,99,92,86,67,64,59,47,41,27,0.00,40.00,7,3,10,0.00
2014-7-5,101,82,73,61,55,49,59,37,19,0.00,40.00,6,2,8,0.00
2014-7-6,105,84,69,69,59,-100,68,47,25,0.00,40.00,7,3,12,0.00
2014-7-7,112,94,80,74,68,65,64,46,24,0.00,40.00,12,5,17,0.00
2014-7-8,114,101,89,76,70,63,58,38,20,0.00,40.00,16,6,23,0.00
2014-7-9,105,94,84,78,73,68,72,51,37,0.00,40.00,11,3,18,0.00
2014-7-10,94,86,83,78,74,72,73,70,53,0.00,40.00,6,2,7,0.00
2014-7-11,105,94,82,76,74,72,73,55,37,0.00,40.00,3,1,5,0.00
2014-7-12,110,94,81,77,74,71,73,54,31,0.00,40.00,3,1,7,0.00
2014-7-13,111,97,86,79,73,72,68,47,31,0.00,40.00,7,4,12,0.00
2014-7-14,110,103,97,81,77,72,55,46,40,0.00,40.00,9,3,16,0.00
2014-7-15,105,93,83,81,77,73,73,61,45,0.00,40.00,8,4,11,0.00
2014-7-16,98,84,80,75,70,67,73,62,37,0.00,40.00,8,2,11,0.00
2014-7-17,100,81,72,70,64,60,69,48,27,0.00,40.00,6,3,7,0.00
2014-7-18,104,92,78,71,66,61,70,45,27,0.00,40.00,4,2,8,0.00
2014-7-19,92,85,82,67,65,63,59,51,41,0.00,40.00,3,2,5,0.00
2014-7-21,95,90,86,81,78,76,73,68,62,0.00,40.00,2,1,4,0.00
2014-7-22,108,95,84,80,77,74,72,58,37,0.00,40.00,3,1,6,0.00
2014-7-23,110,95,84,80,78,74,73,58,36,0.00,40.00,7,3,10,0.00
2014-7-24,102,90,80,79,76,71,74,63,47,0.00,40.00,9,2,11,0.00
2014-7-25,101,89,79,73,71,68,74,58,35,0.00,40.00,5,2,9,0.00
2014-7-26,105,91,81,80,75,71,72,62,43,0.00,40.00,5,2,12,0.00
2014-7-27,100,93,87,80,77,73,71,61,54,0.00,40.00,8,2,11,0.00
2014-7-28,94,94,94,75,75,75,56,56,56,0.00,40.00,5,5,8,0.00
2014-7-29,100,79,76,68,61,55,65,46,27,0.00,40.00,6,2,9,0.00
2014-7-30,99,84,75,70,65,60,69,54,38,0.00,40.00,7,2,10,0.00
2014-7-31,99,83,76,77,65,67,73,63,44,0.00,40.00,2,1,5,0.00
2014-8-1,90,74,74,75,71,65,74,70,59,0.00,40.00,5,2,9,0.00
2014-8-2,85,77,74,72,68,65,74,71,63,0.00,40.00,6,3,8,0.00
2014-8-3,101,86,78,76,72,69,74,64,45,0.00,40.00,4,2,6,0.00
2014-8-4,106,92,80,77,74,71,74,58,38,0.00,40.00,3,1,6,0.00
2014-8-5,104,92,83,77,74,70,73,58,35,0.00,40.00,5,1,6,0.00
2014-8-6,107,94,82,77,72,68,73,52,29,0.00,40.00,11,4,13,0.00
2014-8-7,101,90,80,78,74,70,73,60,41,0.00,40.00,4,2,6,0.00
2014-8-8,98,88,81,76,73,71,73,62,45,0.00,40.00,3,1,4,0.00
2014-8-9,82,78,73,72,69,65,74,73,63,0.00,40.00,3,1,7,0.00
2014-8-10,98,85,77,75,69,68,74,58,43,0.00,40.00,3,1,6,0.00
2014-8-11,100,89,81,76,73,69,71,59,44,0.00,40.00,4,1,7,0.00
2014-11-19,-200,0,200,11,8,0,38,35,27,0.00,40.00,4,2,5,0.00
2014-11-20,-200,0,200,25,25,25,29,29,29,0.00,40.00,3,3,5,0.00
2014-11-21,-200,0,200,14,14,14,0,0,100,0.00,40.00,9,9,12,0.00
2014-11-22,-200,0,200,-100,0,200,0,0,100,0.00,40.00,2,2,3,0.00
2014-11-23,-200,0,200,30,26,21,58,52,44,0.00,40.00,2,1,3,0.00
2014-11-25,66,55,53,44,40,35,70,48,36,0.00,40.00,6,1,9,0.00
2014-11-26,54,48,41,46,38,33,73,70,68,0.00,40.00,14,5,21,0.00
2014-11-27,50,45,39,40,33,18,73,63,41,0.00,40.00,10,3,15,0.00
2014-11-28,48,37,29,22,17,13,67,45,26,0.00,40.00,10,4,13,0.00
2014-11-29,59,39,27,28,23,19,71,53,26,0.00,40.00,6,1,9,0.00
2014-11-30,65,46,37,46,30,26,65,54,45,0.00,40.00,6,2,10,0.00
2014-12-1,74,60,49,50,45,39,68,59,43,0.00,40.00,2,1,4,0.00
2014-12-2,59,49,44,48,38,35,73,64,53,0.00,40.00,10,3,15,0.00
2014-12-3,60,43,43,54,39,35,74,67,69,0.00,40.00,6,2,10,0.00
2014-12-4,55,48,47,38,31,26,67,50,33,0.00,40.00,4,2,7,0.00
2014-12-5,56,50,46,39,34,30,61,54,47,0.00,40.00,2,1,4,0.00
2014-12-6,60,56,51,51,45,39,74,67,59,0.00,40.00,12,2,112,0.00
2014-12-7,56,48,39,39,25,17,63,42,25,0.00,40.00,11,7,21,0.00
2014-12-8,46,41,37,32,23,15,73,50,40,0.00,40.00,9,5,14,0.00
2014-12-9,48,43,36,38,34,28,73,71,65,0.00,40.00,11,6,16,0.00
2014-12-10,58,42,38,36,24,20,65,44,28,0.00,40.00,13,6,19,0.00
2014-12-11,54,39,31,20,14,9,55,36,18,0.00,40.00,11,5,19,0.00
2014-12-12,62,42,33,21,15,10,49,33,13,0.00,40.00,13,3,18,0.00
2014-12-13,64,41,30,30,23,17,63,45,23,0.00,40.00,7,2,10,0.00
2014-12-14,64,45,31,34,28,22,68,48,32,0.00,40.00,6,3,10,0.00
2014-12-15,63,43,33,40,32,25,73,65,42,0.00,40.00,3,1,5,0.00
2014-12-16,56,45,36,46,37,29,73,70,70,0.00,40.00,6,1,9,0.00
2014-12-17,56,47,41,41,34,28,68,59,41,0.00,40.00,5,2,9,0.00
2014-12-18,52,46,36,28,22,19,61,41,28,0.00,40.00,6,3,9,0.00
2014-12-19,54,41,30,28,24,20,71,53,28,0.00,40.00,5,2,7,0.00
2014-12-20,44,35,33,27,21,18,68,53,45,0.00,40.00,2,1,6,0.00
2014-12-21,51,41,39,30,28,27,67,60,42,0.00,40.00,2,0,4,0.00
2014-12-22,42,36,37,31,28,26,73,64,54,0.00,40.00,9,3,12,0.00
2014-12-23,48,42,38,40,34,30,74,71,71,0.00,40.00,6,1,9,0.00
2014-12-24,57,53,49,49,44,40,74,74,73,0.00,40.00,4,1,5,0.00
2014-12-25,65,54,39,56,35,29,72,50,29,0.00,40.00,11,4,21,0.00
2014-12-26,59,39,29,36,28,22,74,66,38,0.00,40.00,3,1,5,0.00
2014-12-27,65,43,33,40,32,25,74,61,40,0.00,40.00,3,1,4,0.00
2014-12-28,59,49,55,52,43,37,72,59,48,0.00,40.00,3,1,5,0.00
2014-12-29,58,48,42,49,41,34,73,71,69,0.00,40.00,6,3,10,0.00
2014-12-30,45,39,29,34,28,21,73,65,45,0.00,40.00,9,3,11,0.00
2014-12-31,47,33,26,21,18,12,73,58,25,0.00,40.00,34,3,34,0.00
2015-1-1,56,42,28,29,18,12,57,41,21,0.00,40.00,11,4,16,0.00
2015-1-2,59,50,41,38,33,29,67,53,41,0.00,40.00,6,2,8,0.00